NOAA 16 DEB, 41300

Orbit data source: Space-Track

NOAA 16 DEB, 41300 is space debris in SSO originally from a launch on Thu, 21 Sep 2000 UTC launched from the Air Force Western Test Range (AFWTR). Debris objects in space refer to the collection of defunct objects orbiting the Earth. Examples of debris include non-operational satellites, rocket bodies, and fragments generated from explosions, collisions, or faulty payload assembly.

Loading next visibility...
Identifier
41300, 2000-055HC
Orbit
SSO
Country
Flag of USUS
Related business
Manufacturer
Unknown
Mission
Spacecraft
Bus & Motor
Unknown
Mass
Unknown
Launch date (UTC)
2000-09-21 (25 years ago)
Launch vehicle
Unknown
Launch site
Air Force Western Test Range (AFWTR)
Object type
Payload
Rocket body
Debris
Shape & HBR
Unknown shape, 0.1 m
Radar Cross Section
Small (<0.1 m²)

Expand to show TLE details & history
Last TLE update: 1 day ago

TLE from 1 day ago
0 NOAA 16 DEB
1 41300U 00055HC  26035.93604897  .00003769  00000-0  19414-2 0  9996
2 41300  98.7060  65.5973 0040632 253.4938 106.1770 14.15325642518698
Epoch: 2026-02-04T22:27Z
TLE epoch observation values (Epoch: 2026-02-04T22:27:54.631Z)
Latitude
0.00003°
Longitude
-46.47582°
Altitude
852.397 km
Speed
7.422 km/s
True Right ascension
04h 22m 23s
True Declination
0° 00' 00"
Sunlit
Object was in daylight at epoch
Visualization orbit readout
Latitude
Unknown
Longitude
Unknown
Altitude
Unknown
Speed
Unknown
Apparent Right ascension
Unknown
Apparent Declination
Unknown
Sunlit
N/A
Visualization observer readout
Local Sidereal Time
06:37:16
Azimuth
Unknown
Elevation
Unknown
Doppler factor
Unknown
Orbital elements
Apogee altitude
867.691 km
Perigee altitude
809.047 km
Semi-major axis
7,216.506 km
Eccentricity
0.00406
Inclination
98.706°
RAAN
65.5973°
Arg. of periapsis
253.4938°
True anomaly
106.62354°
Mean anomaly
106.177°
Eccentric anomaly
106.40033°
Mean motion
3.5404 °/min
Orbital period
101.68 mins
BSTAR
0.0019414
Loading maneuver chart data...
Computing Atmospheric mass density...
Loading historical data...
Loading historical data...
Loading historical data...
Loading historical data...
Loading historical data...
Loading historical data...
Loading historical data...

Documentation

Showing up to 5 results
|